Theta_e
362 359 357 354 354 354 348 343 319 327 324 315 314 317 316 329 329 324 326 328 324 332 335 337 336 334 334 330 332 334 334 327 332 315 313 335 348 350 352 352 353 354 354 355 355 356 357 358 359 363 364 364 366 365 365 365 365 366 366 367 367 367 367 367 367 367 368 368 367 368 367 366 366 365 365 365 365 364 364 363 363 363 362 362 361 361 361 361 361 361 361 361 361 361 361 361 361
360 358 355 353 351 348 334 341 323 320 320 314 314 319 318 326 327 324 324 326 328 330 334 334 335 338 338 337 337 335 333 336 337 336 340 346 349 350 354 353 353 353 355 355 355 356 356 360 362 364 365 365 365 365 365 365 365 365 366 367 367 367 367 367 368 367 367 367 367 367 366 366 366 365 365 365 366 365 364 363 363 362 361 361 361 361 360 360 360 361 361 360 361 361 360 360 361
358 356 352 351 351 345 342 338 315 312 310 307 312 319 326 321 323 325 327 328 331 333 335 337 338 336 335 335 330 330 324 340 339 341 340 348 344 347 353 354 354 355 356 356 356 356 357 360 362 364 365 365 365 365 364 364 365 365 366 366 366 367 367 367 367 366 367 367 367 366 365 365 366 365 365 365 365 365 364 363 362 362 362 361 361 361 361 360 361 360 360 360 360 360 361 361 361
357 351 346 345 337 344 330 324 316 313 310 310 312 321 322 323 324 327 330 332 333 336 337 333 330 338 334 329 331 336 333 334 341 340 339 344 346 351 353 354 356 356 356 357 358 358 357 361 364 364 364 364 364 365 365 365 365 365 365 366 366 366 367 367 366 366 366 366 366 366 365 365 365 365 365 365 365 364 363 363 362 362 362 361 361 361 361 361 361 360 360 360 360 360 360 361 361
351 349 349 342 337 327 326 321 318 317 311 313 311 320 323 326 325 328 330 334 335 336 335 334 333 338 338 334 336 330 332 341 342 345 344 349 353 353 354 355 355 355 355 356 357 358 358 363 364 365 365 365 364 365 365 365 365 365 365 365 366 366 366 367 367 366 365 365 365 366 365 365 366 365 365 365 365 364 363 362 362 362 362 362 361 361 361 361 361 361 361 361 361 360 360 361 361
349 347 351 346 333 341 331 318 315 315 319 321 318 318 325 327 327 329 331 333 334 336 337 335 331 331 332 335 339 334 340 332 343 345 347 348 353 355 355 356 354 353 354 356 357 357 359 363 363 364 364 365 363 364 364 365 365 365 365 365 366 366 366 367 366 366 366 365 365 365 365 366 366 365 365 364 364 363 362 363 362 362 362 362 361 361 361 361 361 362 361 361 361 361 360 361 361
343 346 346 344 340 339 321 316 316 317 321 326 320 322 325 327 329 330 330 333 336 337 339 334 337 335 330 336 339 343 347 346 344 345 350 351 354 355 355 354 353 352 354 355 356 357 359 363 363 363 363 364 364 364 364 365 365 365 364 365 366 366 366 366 366 366 366 365 365 365 366 366 365 364 364 364 363 362 363 363 362 362 362 362 362 361 360 361 361 361 361 361 360 361 362 361 362
356 342 340 331 326 326 318 318 318 320 321 327 326 324 326 329 331 330 330 330 329 330 335 337 337 333 331 341 331 343 347 349 348 351 353 353 354 354 354 353 352 352 354 355 356 358 363 363 364 362 364 364 364 364 366 366 365 364 364 365 366 366 366 366 366 365 365 365 365 365 365 365 364 364 364 364 364 363 362 362 362 362 362 361 361 360 361 361 361 361 361 360 360 361 362 362 362
350 345 345 330 319 322 316 316 317 325 324 325 325 330 334 331 332 330 328 331 333 335 334 335 336 329 331 335 334 342 345 349 351 354 353 353 353 354 354 353 352 352 354 355 357 359 360 364 364 364 363 363 367 366 366 366 365 364 365 365 365 366 366 366 366 365 365 365 365 365 365 364 364 364 364 364 363 362 362 362 362 362 362 361 361 361 361 361 361 361 360 360 361 361 361 361 361
344 343 327 325 322 314 314 314 314 317 321 325 326 328 329 331 330 331 329 330 332 334 335 338 338 331 335 331 335 340 343 350 351 351 352 353 353 354 353 353 354 353 354 355 357 359 360 364 364 364 364 365 366 366 366 365 365 364 365 365 365 365 366 366 365 365 365 365 365 365 364 365 364 364 364 364 363 363 363 363 363 362 362 361 361 361 362 362 361 361 360 361 361 362 361 361 362
335 343 338 322 314 310 311 311 313 314 321 325 326 329 330 331 331 330 330 331 335 333 336 338 333 333 334 334 336 346 350 350 349 347 351 353 353 353 353 354 354 355 354 356 358 360 361 362 365 364 365 365 365 364 365 366 365 365 364 365 365 365 366 365 365 365 365 365 364 364 365 364 364 364 363 363 363 363 363 363 363 362 362 362 362 362 362 362 361 360 362 362 362 362 363 362 362
330 330 329 317 313 311 311 312 314 315 321 323 323 328 329 331 331 328 330 330 333 333 333 338 332 338 332 333 335 344 348 348 349 350 352 353 353 353 353 354 355 355 356 357 359 359 360 361 362 365 365 365 366 366 366 365 365 365 364 365 365 365 365 365 365 365 365 364 364 364 364 365 364 364 363 363 363 363 363 363 362 362 362 362 362 363 362 362 362 362 361 362 363 363 364 363 363
332 326 321 315 311 312 315 314 310 317 317 320 324 328 331 331 329 330 332 333 333 332 332 338 339 338 328 332 340 344 344 347 351 352 352 353 353 354 355 354 356 356 357 359 359 359 360 360 361 362 363 366 365 365 365 366 365 365 365 365 364 365 365 365 365 365 364 364 364 364 365 365 364 364 364 363 363 363 363 362 362 362 362 362 362 363 363 362 362 362 361 361 362 363 364 365 363
334 327 322 314 316 314 312 311 312 307 312 322 324 329 330 330 332 333 333 330 331 330 337 341 339 338 332 336 337 339 343 348 351 352 353 353 354 354 354 355 355 356 357 358 358 359 360 360 361 360 361 362 362 364 366 366 365 365 365 364 363 364 365 365 365 365 365 365 364 364 365 365 365 364 364 364 363 363 362 362 362 363 363 363 363 363 363 363 362 362 362 362 362 362 362 363 365
333 329 321 316 313 312 313 313 310 311 309 320 326 328 328 333 335 333 331 328 330 339 341 344 341 335 327 332 332 338 344 348 351 352 352 352 353 354 354 354 353 354 356 357 358 359 359 360 360 360 361 361 361 361 361 363 366 365 365 364 364 365 365 366 366 365 365 365 365 365 365 365 364 364 364 364 363 363 363 363 363 362 363 363 362 363 361 362 361 362 362 362 362 363 362 363 363
336 328 322 315 310 311 311 313 315 310 308 320 327 329 327 329 336 332 333 336 334 340 340 334 342 334 336 335 337 343 347 350 352 352 352 351 352 353 353 352 352 353 355 356 357 358 359 359 359 360 361 360 360 360 361 361 365 365 365 365 365 365 366 366 366 365 366 365 365 365 364 364 364 363 365 363 364 364 363 363 362 362 363 362 362 361 362 362 362 363 363 363 363 363 364 363 364
332 329 316 314 309 313 313 313 314 312 311 317 324 327 322 324 332 334 340 339 333 333 336 339 338 343 338 339 344 347 349 351 352 351 350 349 349 349 350 350 351 352 355 355 356 357 358 358 359 359 359 360 360 360 360 361 363 366 365 365 365 366 366 366 366 366 366 365 364 364 363 363 360 361 360 360 364 363 363 363 362 362 361 360 361 361 362 362 362 363 363 363 363 364 364 365 364
328 319 317 311 314 317 320 317 316 319 317 316 321 325 324 323 329 333 338 334 334 334 335 338 341 341 343 345 347 348 349 349 349 348 347 346 347 346 347 349 350 349 352 353 355 357 357 358 358 358 359 359 360 360 361 361 362 364 359 360 362 362 364 365 363 361 365 360 365 363 360 363 359 357 357 366 361 364 362 362 363 364 362 361 360 360 360 362 363 363 362 364 362 364 366 362 360
323 318 314 313 313 317 323 320 321 319 319 318 323 326 326 326 330 333 329 329 331 330 332 336 336 339 343 345 346 346 347 346 347 347 345 344 345 345 345 347 348 349 350 352 353 355 356 357 358 357 358 359 359 359 361 361 360 360 358 360 361 364 365 363 360 364 359 359 360 359 362 360 358 358 359 364 364 367 365 365 364 364 363 362 360 361 362 362 363 364 365 362 363 365 363 357 356
324 319 313 315 319 319 322 323 323 324 323 318 321 324 326 327 330 334 329 328 331 327 329 333 334 335 339 342 344 345 345 345 346 346 345 345 346 346 346 346 347 348 349 351 352 355 356 356 357 357 357 358 358 358 359 360 359 358 358 359 360 360 361 362 359 360 359 358 360 358 359 360 360 358 368 366 367 364 363 366 365 364 362 362 362 364 365 366 363 365 365 365 367 367 358 357 356
322 319 315 318 322 319 321 324 324 324 325 320 321 319 323 326 328 329 329 326 326 328 333 333 333 336 338 341 343 344 344 344 345 346 344 345 346 347 347 348 348 349 350 352 353 353 355 355 356 357 357 358 357 357 358 358 358 358 358 358 359 358 359 359 358 359 359 358 359 359 359 360 360 358 361 361 358 360 359 359 361 360 360 357 365 357 358 359 362 356 357 363 356 358 357 356 355
324 320 323 323 323 319 324 325 325 323 325 322 318 316 320 323 325 327 328 322 321 328 334 337 338 339 339 340 342 343 342 342 343 344 343 344 345 346 348 349 351 351 352 350 351 353 354 355 356 357 357 357 357 357 358 359 359 357 357 358 358 357 358 358 357 358 358 359 359 359 360 359 358 357 356 357 357 356 356 356 358 358 357 358 363 355 354 355 356 355 353 352 354 355 356 353 351
316 320 323 324 324 320 323 325 325 324 323 319 317 318 319 319 319 327 327 324 328 336 338 339 340 341 341 342 342 341 342 342 343 343 344 344 345 347 348 349 349 348 350 350 352 354 355 355 356 357 356 357 357 358 358 359 358 358 358 358 357 357 357 357 357 357 358 359 358 360 359 356 357 356 354 354 354 353 354 355 356 357 357 355 360 353 353 355 354 354 353 352 353 355 353 352 349
321 315 320 322 324 322 322 325 326 325 323 321 322 320 317 317 315 324 324 327 336 339 340 340 341 342 342 341 341 341 342 343 343 345 346 346 347 347 349 349 350 351 350 351 353 354 355 355 357 357 357 357 356 358 358 358 358 358 358 361 360 358 358 357 357 357 358 358 359 358 361 356 355 354 354 353 353 354 355 356 357 357 357 354 355 355 354 353 354 354 355 353 353 353 353 352 351
314 313 316 320 322 323 322 325 325 324 323 324 320 317 316 316 317 321 325 334 338 339 340 340 341 341 341 340 340 341 342 343 344 345 347 348 349 350 350 350 351 351 350 351 353 354 355 357 358 357 357 357 357 357 357 358 358 357 358 358 358 361 358 357 357 358 357 358 359 359 361 355 353 353 352 353 353 351 354 356 356 355 354 352 354 355 354 353 354 353 353 352 351 352 351 351 351
316 315 316 317 320 322 322 321 324 324 324 324 317 317 318 317 324 321 331 335 338 339 339 339 339 338 339 340 340 340 341 342 344 345 346 348 349 349 349 350 350 350 351 352 353 354 356 357 357 358 358 357 357 357 357 356 356 356 357 357 357 360 357 357 357 357 357 357 357 358 359 356 352 351 351 354 352 350 353 355 354 353 352 352 353 352 355 354 354 353 352 353 352 352 352 351 355
317 316 315 314 316 321 322 319 322 324 324 323 319 318 317 327 328 321 333 335 338 338 337 338 337 337 338 339 339 340 341 342 343 346 346 347 348 348 349 350 350 350 352 352 353 354 356 357 357 358 358 359 357 356 356 356 356 356 357 357 357 358 358 358 358 357 357 357 357 357 357 359 352 353 354 354 352 351 352 353 351 353 353 354 354 353 356 354 353 351 352 351 349 349 351 351 350
314 314 314 313 314 314 321 320 321 322 322 324 321 317 319 322 328 326 331 335 337 335 335 336 336 336 337 338 338 340 341 342 343 345 344 344 345 347 347 348 349 350 351 352 353 355 356 356 357 358 358 358 357 356 357 355 354 355 358 357 356 357 358 356 356 357 358 356 357 356 356 357 357 354 355 355 353 353 352 353 353 354 354 354 356 357 356 355 354 354 355 353 352 351 351 350 350
312 312 309 311 312 310 315 318 320 322 321 325 320 316 314 320 323 330 334 336 336 335 334 335 335 336 337 338 338 339 340 341 342 343 344 345 347 349 347 350 350 350 352 353 354 355 354 355 356 356 358 357 357 355 356 355 354 355 357 356 356 357 357 356 355 355 356 355 356 356 355 358 357 355 356 357 360 355 355 355 354 357 355 354 356 357 357 356 355 356 355 355 352 350 348 349 350
311 310 308 307 306 304 310 319 321 318 323 324 320 304 308 316 327 332 335 335 335 333 333 334 334 335 336 337 337 339 340 341 340 341 343 345 346 348 347 349 351 350 351 352 353 353 355 356 357 357 357 357 358 356 356 355 355 355 357 357 358 356 355 355 356 354 355 355 355 356 355 358 356 356 357 357 357 356 356 355 355 355 355 355 355 357 353 353 353 351 350 350 353 350 346 348 345
303 306 307 301 300 299 309 313 316 314 323 322 322 306 308 318 327 333 335 336 334 331 332 333 334 335 335 336 337 338 340 340 340 341 341 343 346 347 348 349 350 350 352 352 352 353 355 355 357 357 358 356 359 356 356 354 355 355 356 356 356 356 354 354 354 354 354 354 356 356 356 359 356 357 358 357 355 355 356 354 354 354 356 356 356 356 354 353 352 349 351 348 346 346 343 344 342
304 301 297 299 299 299 308 311 313 311 321 323 318 308 309 318 326 332 335 335 334 331 332 333 333 334 335 335 336 337 338 340 340 340 341 341 344 344 347 348 350 350 351 352 352 354 354 354 357 356 357 356 357 356 355 354 355 354 355 359 355 356 354 354 353 353 354 355 357 356 357 360 357 357 358 357 355 355 355 354 353 356 358 356 354 352 352 352 349 350 350 349 345 342 343 338 339
302 299 297 298 299 301 304 309 313 317 320 322 318 309 311 317 326 331 334 334 333 331 331 332 333 333 334 335 336 337 337 337 338 339 340 339 343 344 346 348 349 350 351 352 352 353 353 354 357 355 356 355 356 356 355 354 355 354 354 356 355 356 354 354 353 354 355 357 358 357 358 361 360 359 359 359 357 356 355 355 354 357 358 354 351 350 351 352 349 351 348 352 346 337 338 338 336
296 300 297 299 299 301 300 306 311 316 319 315 318 313 312 317 323 328 332 332 331 330 330 331 332 332 333 334 335 336 335 335 335 337 338 340 341 343 345 350 348 350 351 352 352 353 352 353 354 354 356 355 356 355 354 354 354 355 354 355 358 356 354 355 354 355 355 357 358 357 360 361 362 360 359 360 357 357 356 356 355 356 355 353 351 349 348 348 349 348 346 347 343 337 334 335 334
294 297 297 299 301 302 302 302 308 315 318 316 316 315 313 315 320 326 329 331 329 328 329 330 331 331 331 333 334 335 334 333 335 337 339 340 340 342 345 347 347 349 350 351 352 352 352 352 354 355 356 355 355 355 355 354 354 354 354 354 355 355 354 354 354 353 355 357 358 358 361 360 362 360 359 360 357 359 355 355 355 354 353 351 350 347 344 347 349 346 344 341 346 337 335 335 337
299 300 299 299 298 299 300 306 310 314 314 315 315 313 313 313 318 323 327 328 327 327 329 329 330 330 330 332 334 334 333 333 336 337 339 340 339 341 344 346 346 348 349 350 351 350 350 351 352 353 355 355 355 354 355 353 352 353 351 351 352 353 353 354 353 352 354 356 358 359 360 361 361 360 358 359 358 358 355 354 353 353 351 350 346 343 343 344 347 343 340 339 338 340 340 340 334
303 302 301 300 301 302 305 306 310 314 312 313 315 315 315 313 316 320 324 326 325 326 326 327 328 328 329 331 332 333 332 332 335 337 338 339 339 340 343 345 346 348 349 349 349 349 349 350 351 351 354 354 354 353 354 352 350 350 351 351 350 351 351 353 353 352 352 355 358 359 360 361 361 360 359 358 358 362 355 354 353 352 351 350 347 345 346 346 344 341 341 345 336 334 335 334 333
302 302 301 300 301 300 305 306 312 315 311 310 314 314 315 313 315 318 323 322 322 324 323 325 326 327 327 330 331 332 332 334 334 334 335 337 338 339 342 344 347 345 347 348 348 348 348 350 350 351 354 353 353 353 354 353 352 351 350 351 351 351 351 351 351 351 351 356 359 360 361 361 361 360 360 359 360 359 354 354 353 352 350 348 348 348 345 350 346 341 340 335 336 332 329 334 332
302 301 300 300 301 304 306 307 311 314 313 308 311 311 312 314 316 317 320 320 321 324 323 325 325 326 326 329 330 331 331 330 332 333 334 335 337 338 341 342 345 346 346 347 348 348 348 349 350 351 353 353 353 353 354 353 353 353 352 352 352 352 354 354 353 353 354 356 360 360 361 361 361 361 361 361 360 357 355 353 353 352 350 351 347 344 342 341 335 339 336 332 331 333 336 337 328
301 300 299 297 302 300 298 304 307 312 312 309 311 312 311 315 316 317 319 320 319 323 323 325 326 325 325 327 329 330 330 330 330 331 332 334 336 337 339 341 343 345 346 346 347 347 348 349 349 351 352 353 353 353 355 355 355 354 353 354 354 354 353 356 355 355 353 358 358 361 361 361 361 361 362 361 360 358 355 353 352 351 350 350 346 342 337 332 334 335 334 339 329 327 326 331 341
302 302 300 300 301 302 302 302 306 310 313 315 311 310 309 311 312 315 318 321 319 320 322 322 325 327 327 328 330 330 330 330 330 331 333 334 335 336 338 341 343 343 344 345 346 347 349 348 349 351 352 353 353 354 355 355 356 353 353 354 354 352 354 353 352 351 351 357 358 359 360 361 362 361 361 360 359 356 356 354 352 352 349 348 342 340 336 333 336 336 338 337 329 326 328 330 336
298 302 303 303 303 302 303 304 303 304 304 312 311 301 301 307 312 314 317 318 317 319 319 319 321 324 324 324 327 329 331 332 331 331 332 334 336 336 338 340 341 343 343 345 347 347 348 349 349 351 352 354 354 354 355 355 354 352 351 350 348 348 348 348 348 349 349 352 357 360 361 361 362 361 360 360 358 356 355 355 352 350 348 347 344 341 337 333 336 335 337 333 330 330 329 330 330
296 299 304 304 304 303 303 302 302 301 299 308 313 303 297 305 309 313 316 317 317 319 318 319 320 322 323 323 326 328 330 331 332 333 333 334 336 336 337 338 340 342 344 345 347 347 347 349 348 351 351 353 354 354 354 355 353 352 351 350 349 348 347 349 351 352 352 352 358 359 360 361 362 360 359 359 358 356 356 354 351 348 346 344 347 341 336 334 337 336 338 332 331 339 331 329 330
296 302 303 304 304 303 303 303 302 298 308 310 312 308 301 299 307 314 316 316 316 317 318 319 320 321 322 323 325 328 330 331 332 332 333 334 336 337 337 339 340 341 344 345 346 347 346 349 348 351 352 354 355 355 354 355 353 352 351 350 351 349 348 348 350 351 352 352 356 359 360 360 361 359 357 357 358 357 356 353 350 346 344 343 347 339 337 336 338 339 340 334 333 335 332 331 329
300 302 303 302 304 304 304 303 302 300 300 296 306 309 301 300 308 314 315 313 314 315 318 319 320 321 322 323 324 327 330 331 333 333 333 334 335 337 339 339 340 342 344 345 346 347 347 349 349 351 352 354 354 355 354 354 354 353 352 351 350 350 349 349 351 351 350 352 355 358 359 359 359 358 356 356 356 356 357 352 349 345 343 343 349 337 336 336 337 338 335 333 333 334 334 333 331
303 303 304 304 304 304 304 302 301 300 297 294 301 305 300 295 304 309 313 313 313 315 318 320 321 322 322 323 324 326 329 331 333 334 334 335 336 337 339 341 341 341 344 347 347 348 348 348 350 349 351 353 354 355 355 354 354 354 351 350 349 349 349 347 349 348 348 350 354 357 357 357 357 356 355 355 355 356 355 351 349 345 344 344 348 338 336 337 336 337 335 332 333 335 336 336 333
305 303 301 301 301 300 300 301 299 297 292 295 302 306 304 295 302 309 309 311 315 317 318 320 322 323 323 324 325 325 327 330 332 333 335 335 337 337 339 339 340 341 343 346 347 348 348 348 350 349 349 353 354 354 354 353 353 353 351 350 350 349 349 347 346 347 348 348 352 355 356 356 356 356 355 355 355 355 353 352 349 346 345 348 348 338 337 338 336 335 334 333 334 335 333 333 340
304 299 299 296 296 297 295 297 300 292 290 294 302 305 306 297 298 308 315 318 319 318 317 319 320 321 324 324 325 326 327 328 331 332 334 335 335 336 337 338 339 340 341 344 347 348 349 348 349 349 349 351 353 354 354 354 354 353 352 351 350 350 350 349 346 346 349 347 351 354 355 355 355 355 354 353 353 353 351 350 349 347 346 345 343 337 339 337 336 335 334 335 333 334 334 337 337
302 299 297 293 288 291 288 291 290 288 290 294 302 305 302 302 302 310 314 317 319 320 321 321 321 322 324 325 326 327 327 328 330 331 333 334 334 335 335 337 338 338 340 343 346 348 349 349 349 349 349 350 351 354 354 353 353 353 352 351 350 351 351 350 348 346 350 349 349 352 353 352 354 352 352 351 352 351 350 349 346 346 345 344 342 337 338 337 336 335 334 335 335 334 335 336 334
300 297 293 290 287 286 284 286 288 289 295 299 300 306 300 302 307 311 314 317 320 321 322 323 323 323 324 326 327 328 328 328 329 331 332 334 335 335 336 337 338 339 339 342 344 347 349 349 349 349 350 351 351 352 353 353 353 353 353 352 351 351 352 352 350 347 348 350 349 351 353 352 352 352 351 350 352 351 350 349 348 346 346 343 341 338 338 338 337 335 335 335 335 337 335 336 335
300 299 298 294 292 289 285 286 287 288 289 295 300 297 293 299 298 311 315 318 319 321 323 323 324 324 325 327 328 329 329 329 330 330 331 333 335 336 336 337 338 339 340 341 343 346 348 349 349 349 349 352 352 351 352 352 353 353 353 353 353 352 352 352 352 351 349 350 349 350 352 352 352 351 352 351 352 350 350 349 348 346 345 341 339 339 339 338 338 337 337 336 338 337 337 337 335
301 301 299 293 295 296 290 290 290 291 293 294 296 294 297 300 305 314 317 318 319 320 321 323 322 324 325 326 326 327 329 330 330 331 331 332 335 336 336 337 339 339 340 341 343 345 347 349 350 350 349 351 353 353 351 352 352 353 353 353 353 353 354 354 353 353 352 351 350 351 351 351 351 351 352 351 351 350 349 348 349 347 345 340 336 339 339 338 338 337 337 336 336 341 336 336 335
296 299 295 297 299 299 295 298 300 299 296 290 295 300 298 303 306 311 314 315 317 318 319 321 322 323 324 325 326 327 329 330 331 331 332 332 334 336 337 337 338 340 340 341 343 344 346 348 350 349 350 351 353 354 352 352 352 352 353 353 354 354 354 353 353 352 353 353 351 351 351 351 351 350 351 351 350 350 349 348 348 347 344 341 336 337 340 338 338 338 337 336 335 339 337 335 335
296 296 295 301 303 300 296 287 292 291 287 290 296 294 294 299 294 307 308 311 314 315 316 319 321 323 322 325 326 327 327 330 332 332 333 334 334 336 337 338 339 340 341 341 343 345 347 349 350 350 350 350 352 353 354 353 352 351 352 353 354 354 355 355 354 353 354 353 352 351 351 350 351 351 351 351 350 349 349 352 348 347 344 340 337 335 340 339 338 338 337 337 337 338 337 335 336
301 296 301 298 291 291 293 291 288 286 287 287 292 295 295 297 297 303 304 306 310 314 316 317 319 321 322 324 325 327 328 329 330 331 333 334 334 335 337 338 339 341 342 342 344 345 347 349 351 352 351 352 352 354 354 355 354 353 353 353 354 355 355 356 355 355 354 353 352 351 351 351 351 351 351 350 349 349 348 348 348 346 343 340 338 335 338 339 338 337 337 336 337 337 336 335 335
306 303 299 300 295 295 291 292 290 291 286 289 288 293 291 300 299 303 306 307 309 313 315 316 318 320 322 323 325 326 326 327 329 331 333 334 335 336 337 338 338 340 341 343 344 345 347 349 351 352 353 353 353 353 355 354 354 354 354 354 354 355 356 356 356 355 354 353 353 351 351 350 350 352 351 351 349 349 348 347 347 345 342 340 338 337 337 338 338 337 338 336 336 337 335 334 334
300 300 298 299 299 298 298 296 294 290 287 284 286 289 292 298 304 307 306 307 309 313 314 317 318 320 323 324 325 325 326 327 329 331 332 334 335 336 338 339 340 341 343 344 344 345 346 349 351 353 352 353 353 354 354 354 355 355 355 354 354 355 355 356 356 356 354 353 353 352 352 352 351 351 351 350 349 349 348 348 347 344 341 339 338 337 337 338 337 336 337 337 336 336 335 334 334
302 301 299 299 294 293 289 287 296 294 291 285 287 288 290 301 309 310 309 310 310 314 316 317 318 320 322 324 325 326 326 327 329 331 332 333 335 337 339 340 341 341 342 343 344 345 346 348 350 353 354 354 354 354 355 355 355 355 355 355 355 355 356 356 355 355 355 354 353 353 352 352 351 351 351 350 350 349 349 348 346 343 340 339 339 338 337 338 337 335 335 338 336 336 335 335 334
Wind_Speed
15 11 9 8 6 3 4 2 1 1 0 1 1 2 1 3 4 4 3 4 3 4 6 2 8 3 1 1 9 8 9 3 1 4 3 3 6 10 8 11 10 9 9 8 6 7 7 11 13 17 20 19 18 19 19 19 19 19 18 18 18 17 17 17 17 17 17 17 16 16 15 15 15 15 14 14 14 13 13 12 11 11 10 10 10 9 9 9 9 9 9 8 8 8 7 7 7
11 10 8 8 4 4 0 3 1 1 1 1 0 1 2 5 4 5 8 9 4 4 4 2 5 5 10 13 9 3 8 8 2 5 5 7 9 7 9 12 12 11 9 8 8 8 7 11 15 17 18 19 18 18 19 19 18 18 17 17 17 17 17 16 16 16 16 16 16 15 15 15 15 15 14 14 13 13 13 12 11 10 10 9 9 9 8 9 8 8 8 8 8 7 7 6 6
10 10 7 5 4 3 2 1 1 0 2 2 1 3 2 6 3 6 10 9 8 6 8 8 10 9 7 6 5 4 1 6 11 9 8 10 12 9 10 11 10 10 10 8 9 9 7 10 15 16 18 19 18 18 18 18 18 18 17 17 17 17 16 16 16 16 16 16 15 15 15 15 15 14 14 14 14 13 12 12 11 10 9 9 9 8 8 7 7 7 7 7 7 7 6 5 5
10 8 9 7 3 0 1 0 2 1 0 2 0 2 4 4 8 9 9 13 12 13 10 10 4 2 8 9 7 11 6 4 4 10 10 8 5 11 12 12 10 9 8 7 9 7 6 12 15 17 18 18 18 17 17 17 18 17 17 17 17 16 16 16 17 16 16 16 15 15 15 15 14 14 14 13 13 13 12 11 11 10 9 8 8 7 7 7 7 7 6 6 6 6 6 5 5
9 8 6 5 2 1 1 1 1 1 0 3 2 2 5 7 12 10 11 14 13 11 10 8 7 6 9 9 4 2 4 6 5 3 6 6 11 12 13 12 10 10 8 8 8 7 7 14 15 15 17 18 18 17 17 18 17 17 17 16 16 16 16 16 16 16 16 16 15 15 15 14 14 14 13 13 13 12 12 11 10 9 9 8 8 7 6 6 6 6 6 6 5 6 5 5 4
6 6 5 3 1 1 1 1 1 2 6 2 1 4 4 9 12 13 12 11 11 9 9 7 7 7 5 4 2 3 8 5 7 6 8 8 15 14 14 12 10 10 9 8 7 6 8 15 17 17 17 16 19 18 18 18 17 17 17 16 16 16 16 16 16 16 16 16 15 14 14 14 14 13 13 13 12 12 11 11 10 9 8 8 7 6 6 6 5 5 5 5 5 5 4 4 4
7 5 3 3 3 0 2 2 5 3 6 5 2 6 11 10 11 14 13 11 11 12 10 11 14 13 10 4 7 3 2 8 6 7 7 13 14 15 15 11 11 10 10 8 7 7 11 17 19 19 19 18 17 19 18 17 17 17 16 16 16 16 15 16 15 15 15 15 15 14 14 14 14 13 13 12 12 11 11 10 9 8 8 7 6 5 5 5 5 4 4 4 4 4 4 3 4
4 4 5 3 1 1 1 3 6 2 5 6 3 9 11 12 12 11 12 12 8 8 9 8 5 12 10 3 5 5 10 3 9 11 14 14 15 15 13 12 11 11 10 8 7 6 14 19 18 19 19 19 18 18 18 17 17 17 16 16 15 15 15 15 15 15 15 15 14 14 14 14 13 13 12 12 11 11 10 9 8 7 7 6 5 4 4 4 4 4 3 2 3 3 3 3 3
2 2 3 0 2 2 2 4 6 5 7 4 5 7 11 14 11 12 10 8 11 8 10 13 9 10 5 11 6 5 6 13 12 16 15 15 16 15 11 13 13 11 11 9 8 7 9 17 18 18 18 18 17 17 17 18 17 17 16 15 15 15 15 15 15 15 15 14 14 14 13 13 13 12 12 11 11 10 10 9 8 7 7 6 5 4 4 4 3 2 2 2 2 2 2 2 2
2 3 3 3 2 3 3 3 3 5 7 7 10 12 12 11 12 11 14 11 10 12 10 6 4 15 12 13 9 5 7 14 16 15 14 16 15 13 13 13 13 14 12 10 8 8 7 16 18 18 17 17 17 17 17 17 17 17 16 16 15 15 15 15 15 14 14 14 14 13 13 13 12 12 11 11 11 10 10 9 8 8 7 6 4 3 3 3 2 1 1 1 1 1 2 1 1
3 3 3 2 1 3 0 8 2 4 6 8 9 12 13 10 12 12 11 13 11 10 12 15 13 15 10 7 5 6 13 15 15 15 15 15 14 13 12 12 12 12 12 11 9 8 8 10 19 19 18 18 18 18 18 17 17 17 16 16 15 15 15 15 14 14 14 13 13 13 13 12 12 12 12 11 11 10 10 9 8 8 7 5 4 3 3 2 1 0 1 2 2 2 2 1 1
3 3 2 3 3 2 4 5 7 4 8 8 7 11 5 13 11 12 15 14 11 14 13 6 8 14 12 8 4 10 13 14 12 14 14 15 12 14 12 10 12 11 12 11 9 8 9 9 11 17 19 18 18 17 17 17 17 17 16 16 16 15 15 15 14 14 14 13 13 12 12 12 12 12 11 11 10 10 10 9 8 7 6 5 4 4 3 2 1 1 1 2 3 3 4 3 2
4 2 2 1 3 1 6 4 2 6 6 6 9 7 10 14 12 15 13 16 14 14 8 7 20 7 8 6 7 12 14 12 12 13 15 12 12 12 11 11 12 12 11 11 10 9 9 9 8 10 13 20 18 18 18 17 17 17 16 16 15 15 15 14 14 14 14 13 13 12 12 12 12 12 11 11 10 10 9 8 8 7 6 6 5 4 4 3 2 2 2 3 4 4 4 5 3
7 4 2 3 1 1 4 2 1 1 4 7 4 10 9 11 13 16 16 14 13 9 10 17 11 12 13 9 8 9 11 15 15 15 12 14 12 12 13 11 13 13 13 11 10 9 8 8 7 8 10 10 9 14 17 18 17 17 17 16 16 15 15 14 14 14 13 13 13 12 12 12 12 12 12 11 10 9 8 8 8 7 6 6 5 5 4 4 3 3 3 3 4 5 5 5 5
8 2 3 2 4 1 2 1 3 1 4 6 9 10 8 10 15 15 16 15 7 13 14 7 13 13 9 14 9 12 13 17 17 14 13 13 15 13 13 11 11 10 10 10 9 9 9 7 7 7 7 7 8 7 7 12 17 17 17 16 16 15 15 14 14 13 13 13 13 12 12 12 11 12 11 11 10 9 9 8 7 6 6 6 5 4 4 4 3 3 3 3 4 5 6 6 6
8 3 1 3 6 1 3 1 1 3 3 6 10 10 8 13 15 14 12 13 10 12 16 7 9 1 15 6 12 17 19 17 15 15 13 13 12 12 12 11 10 9 8 9 9 8 8 8 7 7 7 7 6 6 6 7 14 17 16 16 16 15 15 14 14 13 13 12 13 12 12 9 10 8 12 8 10 9 8 6 7 7 7 6 5 5 5 5 5 5 4 4 5 5 6 7 7
2 2 3 1 7 1 3 1 1 0 2 6 9 11 8 11 10 7 13 16 19 14 7 9 7 9 17 10 17 18 19 17 16 17 15 11 10 9 9 8 8 7 6 8 8 7 8 8 8 7 7 7 7 6 6 7 10 16 14 16 16 15 14 14 13 13 13 11 10 10 10 6 4 3 6 3 8 4 7 9 9 7 7 7 6 6 6 6 6 6 5 5 5 6 6 7 8
2 4 4 6 7 2 3 2 1 2 0 3 8 10 14 12 11 10 14 13 14 13 9 8 9 8 9 15 16 17 18 19 18 18 15 12 10 10 9 9 10 9 8 8 7 8 8 7 8 8 7 8 7 6 5 6 7 11 7 8 8 10 12 12 10 6 8 4 10 8 4 4 3 3 3 6 3 4 6 10 9 9 8 7 7 6 6 7 6 6 5 5 5 6 7 3 3
8 3 4 10 4 6 4 2 4 3 1 1 9 12 14 15 17 11 12 12 13 11 11 12 12 12 13 16 18 17 19 19 19 17 17 16 13 14 11 10 10 10 9 9 8 9 8 8 8 8 9 8 8 7 6 6 6 5 5 6 5 9 7 8 5 6 3 4 3 3 4 3 4 3 3 4 4 7 7 10 10 10 9 8 7 6 6 5 5 5 5 6 7 6 4 3 3
6 5 6 10 8 2 7 6 4 2 4 4 7 9 14 15 15 10 15 15 14 14 13 12 15 17 17 17 17 17 17 18 17 16 17 16 15 14 13 13 11 11 11 10 10 8 9 9 10 9 10 9 8 7 6 6 5 5 5 5 5 5 5 4 4 4 4 4 4 4 4 4 4 4 7 11 10 6 6 10 11 10 9 7 7 5 5 5 6 5 5 6 5 3 3 3 3
2 5 8 10 10 4 6 6 4 7 4 6 10 6 13 14 13 13 16 15 13 12 18 22 20 21 20 19 18 17 17 18 16 16 15 15 14 12 12 12 12 11 10 10 9 10 10 10 9 9 9 9 8 7 6 6 5 5 5 5 5 5 5 4 5 4 4 4 4 5 4 3 3 4 4 4 4 5 5 4 5 4 2 2 4 2 2 3 3 2 2 3 3 2 3 4 3
1 10 13 13 10 5 8 10 11 9 6 5 8 11 13 9 12 14 20 15 13 15 16 19 23 24 23 22 21 17 18 17 17 17 16 17 18 14 12 10 9 9 9 10 11 10 11 10 10 9 9 9 9 7 7 7 6 6 6 5 5 4 5 5 5 5 5 5 5 5 4 4 4 4 4 5 5 4 5 5 5 3 3 3 3 3 2 2 3 2 1 2 3 2 3 3 2
9 9 11 15 15 10 6 14 11 13 6 6 14 10 7 10 7 16 18 14 12 15 20 21 23 23 23 20 20 18 19 18 18 18 17 17 15 15 14 12 13 12 10 10 10 9 10 11 10 9 10 8 9 7 6 6 6 6 6 5 6 5 5 5 5 5 5 5 6 5 5 5 5 5 5 5 5 4 5 5 5 4 4 4 3 2 2 2 3 3 2 2 3 2 2 3 3
13 12 11 14 15 15 9 16 14 12 11 10 6 10 11 10 10 12 13 5 15 16 19 21 21 20 21 21 19 20 20 19 18 18 18 17 17 17 15 14 12 10 10 10 10 10 10 12 11 10 10 9 8 8 8 7 6 6 7 7 7 6 6 6 6 6 5 6 6 6 6 5 6 5 5 5 5 4 4 4 4 4 5 5 3 2 3 3 2 2 2 1 1 1 2 3 2
11 13 8 8 10 13 10 13 15 13 9 9 10 14 13 11 8 7 10 16 17 18 18 19 20 20 18 20 19 19 18 17 17 16 13 11 13 14 13 10 11 11 11 11 10 11 12 12 12 12 10 10 9 8 8 8 7 7 7 7 7 7 7 6 6 6 6 6 6 6 6 6 5 5 6 6 4 5 4 4 4 5 4 4 2 3 2 2 2 2 1 0 1 2 2 3 2
9 11 8 6 10 13 11 9 16 13 7 9 11 11 10 6 10 12 17 18 19 19 18 20 21 20 19 19 19 18 18 18 17 16 16 12 13 14 14 12 12 13 13 12 12 11 11 12 13 13 12 11 10 9 8 8 8 8 8 8 7 7 7 7 6 6 6 6 6 6 7 6 6 6 6 5 5 5 5 4 4 4 4 4 2 3 2 2 2 1 1 2 2 2 3 4 3
3 6 4 5 6 12 14 10 15 10 9 13 14 9 7 12 12 1 13 21 21 20 19 19 20 20 19 18 16 16 19 19 19 16 13 12 13 13 14 13 13 13 12 13 12 11 11 12 12 13 12 11 9 10 8 9 9 8 8 8 7 7 7 7 6 6 6 6 7 7 6 6 5 5 6 6 5 6 5 5 5 4 3 4 2 3 2 3 2 3 3 3 2 2 3 3 3
9 8 8 7 12 10 14 13 13 10 7 14 11 9 13 7 12 14 13 21 23 22 20 19 18 17 16 17 15 13 15 15 15 16 17 16 13 13 15 14 14 13 13 14 12 11 12 13 13 13 12 11 11 11 8 9 9 9 8 7 7 7 7 6 6 6 6 6 7 6 6 6 5 5 6 5 6 6 5 5 4 4 4 4 4 3 4 2 3 3 3 2 1 1 3 3 3
6 5 7 8 9 8 7 17 13 13 7 11 8 8 8 7 14 20 19 19 23 24 22 20 19 17 15 15 14 12 14 14 13 14 16 15 13 13 15 15 14 14 11 14 13 12 14 13 12 13 12 11 12 12 9 9 8 8 7 8 7 7 6 6 6 6 6 6 6 6 6 5 5 6 6 7 6 6 5 5 4 4 5 4 4 3 3 3 2 3 3 1 1 1 2 3 2
7 3 3 6 5 6 8 8 13 11 10 13 11 5 8 8 18 18 19 18 19 20 19 19 16 16 14 14 14 12 12 13 13 13 14 14 15 15 15 15 16 14 11 11 13 14 12 10 10 10 12 12 12 10 8 8 8 8 7 7 7 7 6 7 7 6 6 6 7 6 6 6 6 6 6 5 6 5 5 5 5 5 4 4 3 3 4 3 4 3 3 1 2 2 3 3 3
6 5 2 4 4 6 3 3 9 11 14 15 14 8 6 12 18 21 19 22 23 20 20 18 17 16 15 13 14 14 14 14 14 14 14 14 14 14 15 15 16 14 11 12 15 15 13 12 10 9 11 12 12 10 10 9 8 8 8 7 7 7 7 7 7 6 6 7 7 6 6 6 6 6 6 6 5 5 5 5 4 5 5 4 4 4 4 3 3 3 2 1 2 2 1 2 2
2 5 7 4 3 7 9 4 7 7 9 13 8 5 7 16 18 22 20 20 21 21 20 18 18 16 16 13 15 15 14 13 14 14 14 14 16 13 16 16 17 15 15 14 14 14 14 13 12 11 12 13 12 11 10 9 9 8 8 8 7 7 7 7 7 7 7 6 7 6 6 7 6 6 6 5 6 5 5 5 5 5 5 4 4 3 2 3 3 3 2 1 0 2 1 1 1
0 4 5 7 3 6 5 6 8 13 14 11 16 8 6 11 17 19 19 20 19 20 20 18 19 19 17 14 15 14 13 13 13 15 14 13 14 14 15 16 17 16 15 15 15 14 14 14 14 13 14 14 13 12 10 9 8 8 8 8 8 8 7 7 7 6 6 6 6 6 6 7 6 6 6 6 5 5 5 5 5 5 4 5 4 3 3 2 2 1 2 1 2 2 1 1 2
5 0 4 4 5 5 6 8 2 10 17 8 0 9 6 16 19 20 21 21 19 19 20 19 18 17 16 14 15 15 14 14 15 16 16 15 12 14 15 15 16 16 15 16 15 16 15 14 13 13 13 14 12 12 10 9 9 9 8 8 7 8 9 8 6 6 7 7 6 7 7 6 6 6 6 5 5 4 5 5 5 5 5 4 4 3 4 1 1 1 3 2 2 3 1 0 2
6 4 5 9 5 6 9 4 3 13 16 14 12 13 7 20 18 21 23 21 21 20 20 19 19 17 16 15 16 17 15 15 17 15 17 15 15 13 14 16 16 16 14 16 16 15 13 13 12 13 13 13 12 11 9 8 8 8 8 7 7 7 7 7 6 6 6 6 7 7 7 6 6 6 6 5 5 5 5 5 5 5 4 4 4 3 2 2 2 2 2 2 1 1 0 1 0
8 7 6 5 7 6 5 9 7 9 14 13 17 14 11 20 19 20 20 21 20 19 19 17 18 17 16 16 16 16 16 17 14 14 16 15 14 13 15 14 15 15 14 15 16 15 14 13 12 12 13 13 11 10 9 8 7 7 8 6 6 6 6 6 6 6 6 6 6 7 7 7 6 6 6 5 5 5 5 5 5 4 4 4 3 3 3 3 4 2 2 3 1 0 2 0 2
7 6 5 10 10 10 10 9 4 5 7 15 15 15 16 22 22 22 22 19 17 18 19 17 17 17 16 17 17 18 18 18 15 16 16 16 16 14 14 14 14 14 15 16 16 16 16 15 14 14 13 13 12 11 9 9 9 7 7 9 9 7 7 6 6 6 6 7 7 7 7 7 7 6 6 6 6 5 5 5 5 5 4 4 4 4 4 4 4 4 4 1 2 1 1 1 0
10 9 8 11 9 12 12 5 3 11 8 8 12 15 16 21 20 22 21 20 19 20 19 19 20 18 18 20 20 20 20 14 14 12 13 14 15 14 14 13 14 15 15 17 18 18 16 15 16 14 12 13 13 13 10 10 10 10 9 9 7 7 7 7 7 6 6 6 8 8 7 7 7 7 6 6 6 6 6 6 5 6 5 4 4 3 3 3 3 3 3 1 1 1 1 2 2
9 9 9 10 12 10 10 9 11 7 10 8 9 14 14 18 19 18 23 21 19 21 21 21 20 20 16 18 20 20 16 14 15 17 16 15 18 17 15 15 16 19 17 17 17 16 16 15 14 14 13 13 13 13 11 10 9 8 9 6 8 5 5 6 6 6 5 7 8 8 7 7 7 6 7 7 6 6 7 6 6 5 5 5 3 3 3 4 3 4 3 3 0 1 1 1 2
10 10 9 11 13 3 9 5 5 6 12 10 13 15 10 10 14 17 19 20 16 20 22 21 22 22 20 21 20 18 19 18 18 18 18 16 17 17 15 15 16 16 16 16 16 18 15 15 14 15 14 14 13 13 13 10 9 7 6 6 6 7 6 5 5 5 5 6 7 7 7 8 8 7 7 7 6 6 6 7 5 5 6 5 5 4 4 4 3 3 3 2 3 1 0 1 0
11 13 11 13 14 9 10 7 4 3 6 3 8 4 1 6 10 12 14 16 18 19 19 19 19 22 22 21 20 21 22 20 20 20 18 17 18 19 18 17 16 16 17 17 17 17 14 18 17 17 15 15 13 13 13 11 8 6 5 4 3 3 1 4 4 6 6 6 6 6 8 8 8 8 7 8 7 7 6 6 6 6 5 5 5 5 5 5 4 5 4 3 3 4 1 0 0
9 13 15 17 15 10 11 8 6 2 6 3 12 3 6 7 15 19 15 10 15 17 19 19 19 18 18 18 20 19 20 21 22 22 21 20 20 18 17 16 16 16 17 17 18 18 16 15 15 15 13 13 14 14 14 12 11 10 9 9 9 8 8 8 10 11 8 8 9 7 7 8 8 7 7 8 7 6 6 6 6 6 5 5 5 6 5 3 4 4 5 5 4 3 4 2 0
9 11 13 17 19 14 13 10 1 2 6 6 9 11 5 3 8 14 15 15 16 13 19 19 19 18 18 18 18 18 19 18 18 20 21 19 19 19 19 18 18 18 18 17 16 16 16 15 15 16 14 13 13 14 15 12 12 11 13 13 11 12 11 9 8 7 8 7 6 8 8 7 8 9 8 8 7 7 7 6 6 6 6 6 5 5 5 6 6 5 4 4 5 4 3 3 4
11 6 7 12 16 16 16 13 9 6 4 3 9 8 7 7 10 12 17 17 15 15 17 18 18 19 20 19 19 19 19 20 18 19 20 20 20 21 21 21 19 20 18 16 16 15 17 16 16 17 14 14 13 13 15 14 13 12 13 12 11 11 12 11 10 10 7 6 7 8 7 7 8 8 8 8 8 7 7 7 6 6 6 6 6 6 6 5 5 3 5 5 5 4 4 6 4
9 5 8 10 12 15 15 12 10 6 5 7 8 6 4 6 11 13 14 14 14 17 18 18 19 20 22 22 21 22 22 21 20 19 20 21 20 20 21 20 21 19 16 16 16 16 17 16 16 14 14 14 13 16 15 15 13 13 13 12 11 10 10 9 8 7 7 7 8 7 8 8 7 7 7 8 8 8 7 7 7 6 6 7 6 6 5 5 6 6 4 4 5 4 4 3 4
10 5 8 11 10 10 12 10 10 7 6 9 9 5 6 3 3 9 8 15 16 16 19 19 20 22 22 21 21 22 21 19 20 22 22 22 21 21 22 22 21 18 18 18 18 16 16 14 15 16 15 14 14 16 16 16 15 13 12 12 14 11 9 7 7 8 8 7 9 9 8 8 8 7 7 7 8 8 8 7 7 8 7 7 6 6 5 5 5 6 7 6 6 5 3 5 5
8 8 7 9 9 9 6 6 5 5 7 9 10 12 8 5 5 14 12 13 18 17 14 15 15 17 21 22 23 20 20 19 19 20 21 22 22 22 20 20 20 19 17 18 17 17 16 17 17 18 18 14 15 17 17 17 15 14 13 14 15 14 12 10 9 9 8 7 9 9 9 8 8 8 7 7 8 8 8 8 8 8 7 7 7 6 6 6 6 7 7 5 6 6 5 4 3
13 5 8 6 9 5 3 3 2 5 8 6 11 12 15 12 4 9 15 22 25 22 20 20 19 18 19 19 19 21 21 20 20 19 19 20 19 18 17 19 19 19 17 17 17 17 17 17 18 20 18 17 15 16 17 17 15 14 14 14 14 13 13 11 12 12 11 11 10 10 9 8 8 7 7 7 8 9 8 8 8 8 8 7 8 7 6 6 7 6 7 7 6 5 5 5 4
13 8 6 10 4 3 8 5 8 7 8 5 7 13 10 16 7 14 19 16 18 19 19 22 22 21 19 20 21 20 20 20 20 19 18 18 18 18 18 19 18 18 18 19 19 18 18 18 20 20 19 18 17 17 18 17 16 15 14 15 14 12 12 13 13 12 10 10 10 10 9 9 8 8 8 9 9 11 9 9 8 9 9 8 7 7 7 7 7 7 7 6 6 6 6 6 5
13 13 8 9 8 7 8 6 1 3 5 5 6 11 10 3 9 10 20 20 20 20 19 22 24 23 21 20 20 19 19 19 19 19 19 19 19 19 20 20 19 19 20 20 19 18 17 17 20 21 21 19 17 17 18 17 17 16 15 14 14 12 12 12 11 12 11 9 9 11 11 11 10 11 11 11 11 11 9 9 9 9 9 8 8 8 8 8 8 8 7 7 6 6 5 6 6
12 5 11 10 6 5 8 5 9 8 7 6 5 5 4 7 5 11 16 21 19 19 21 22 23 22 20 19 17 19 19 18 18 18 19 19 20 21 20 20 19 19 20 19 18 18 18 18 19 21 20 19 19 18 17 18 16 15 14 14 13 12 12 11 11 10 10 10 9 10 10 10 10 10 11 10 10 11 11 10 10 9 9 9 8 8 8 8 8 7 7 7 7 6 6 6 6
10 8 6 7 15 5 4 5 3 3 2 3 3 4 6 8 5 15 18 18 18 19 21 18 15 15 15 12 15 17 18 19 18 19 19 21 21 21 20 19 19 18 20 19 20 19 19 19 20 21 21 20 19 18 17 18 16 14 15 15 15 14 12 11 10 9 9 10 10 11 11 10 10 10 9 10 11 11 11 11 11 10 10 9 9 9 9 8 8 8 7 7 7 5 6 6 6
6 7 15 9 8 7 2 3 1 0 0 9 3 3 4 6 3 5 10 15 19 19 18 17 16 17 15 15 17 18 19 19 19 19 18 20 19 20 20 20 18 18 18 20 21 21 22 19 18 20 19 18 19 19 18 17 16 15 15 15 14 14 14 13 12 12 12 11 10 10 10 10 10 9 10 10 11 11 11 11 11 11 10 10 9 8 9 9 9 8 8 7 8 6 6 7 6
5 12 6 3 4 6 6 7 1 7 7 5 3 9 3 2 8 3 5 9 12 10 10 15 17 17 17 16 17 18 18 19 20 20 20 21 21 22 20 19 20 21 22 22 22 20 19 19 20 20 19 20 18 18 18 16 17 16 15 16 15 15 14 14 12 12 11 10 10 9 9 9 11 10 10 10 11 12 12 12 11 11 10 10 11 9 9 9 9 8 8 8 8 7 7 6 7
11 9 6 8 4 9 3 3 9 7 9 3 3 4 5 8 7 2 7 9 13 14 13 12 14 16 17 18 21 20 19 17 17 18 18 19 18 19 19 20 21 22 22 22 21 19 17 17 18 20 22 21 21 18 17 15 16 14 13 15 16 15 13 13 12 11 11 12 12 11 11 11 10 10 10 11 11 12 12 12 11 11 10 11 10 10 9 8 9 9 8 8 7 8 8 8 7
10 6 5 6 6 9 5 7 3 5 3 4 6 4 7 6 6 8 12 14 13 15 16 15 17 20 21 21 20 18 17 16 17 18 18 19 20 21 21 20 20 20 19 18 19 18 20 19 19 19 18 18 18 18 17 17 16 14 14 14 14 14 13 13 12 12 12 13 13 12 12 12 13 11 11 12 12 13 13 13 11 11 11 11 11 10 10 9 9 9 9 8 8 9 9 9 8
9 10 9 3 4 2 6 3 8 6 4 4 3 6 6 6 7 8 9 10 11 14 16 16 19 21 22 21 19 18 18 16 17 18 18 19 19 19 19 19 20 19 18 17 17 20 20 18 18 19 20 19 19 19 18 16 15 15 16 16 15 14 15 13 13 13 13 13 12 12 12 12 10 12 12 13 13 13 13 13 12 11 12 12 12 11 10 9 9 9 9 9 8 9 10 9 8
12 12 12 10 7 4 8 9 2 3 4 4 4 11 5 9 5 8 11 14 7 12 17 19 20 21 20 19 21 20 18 19 19 19 19 19 17 18 18 17 15 15 15 18 18 17 17 19 19 19 18 19 20 19 18 17 15 15 16 16 16 14 14 13 14 13 14 13 13 13 12 11 14 13 13 14 14 13 12 13 12 12 12 12 12 12 11 10 10 10 9 8 9 10 10 9 8
Wind_Direction
152 157 158 162 155 133 135 209 82 80 21 327 69 210 166 158 116 124 154 116 155 233 209 246 159 136 235 133 111 100 30 144 340 157 195 131 132 132 137 130 131 130 138 138 141 140 157 142 150 146 136 135 133 133 131 129 128 126 126 125 125 123 123 124 123 121 120 121 121 121 124 124 124 122 121 120 121 121 117 114 113 114 114 110 107 104 102 101 99 99 93 92 93 94 94 95 93
152 159 163 170 160 143 216 190 122 10 34 345 292 87 183 116 171 176 154 174 199 175 206 192 149 97 98 105 130 120 36 15 335 99 75 114 116 119 139 135 141 138 142 138 137 144 167 157 158 144 136 137 135 134 134 132 130 129 128 127 126 125 126 125 122 120 120 122 122 125 126 127 126 125 125 125 125 122 120 119 118 119 117 112 109 108 103 101 98 97 98 95 91 92 93 94 95
154 159 162 188 136 237 298 174 69 24 34 55 242 197 103 162 178 160 167 168 164 163 172 133 127 133 132 103 72 25 81 49 90 97 105 132 126 149 144 141 140 135 136 141 146 159 165 155 148 143 141 138 137 136 136 135 133 132 131 130 128 128 127 126 125 125 125 126 127 128 130 130 129 129 129 130 127 125 125 123 125 124 123 118 111 107 105 99 100 99 97 94 93 94 94 94 95
153 169 159 179 154 299 254 26 106 130 124 231 308 148 181 177 129 121 118 131 140 138 140 129 110 3 111 79 93 83 84 98 87 127 130 158 149 144 145 142 138 132 135 141 151 154 155 152 146 142 141 139 139 138 139 140 137 135 134 133 131 130 130 130 129 129 129 131 132 133 132 132 132 132 133 132 128 127 125 128 129 130 127 121 116 111 106 101 99 97 92 94 94 99 99 98 100
160 174 178 182 134 228 140 235 157 130 185 210 188 222 193 158 141 137 123 133 137 138 127 117 103 80 92 109 140 120 147 101 107 91 119 108 130 140 143 141 138 139 141 144 144 147 156 151 146 143 144 145 144 145 145 142 140 137 136 136 134 134 135 133 133 132 133 134 135 135 135 135 136 136 135 134 131 128 130 131 131 133 132 129 124 115 112 110 104 100 95 92 94 95 98 101 102
152 167 202 225 152 306 6 9 319 235 236 166 171 206 170 156 132 127 125 113 111 108 114 102 110 126 70 26 44 100 140 139 143 105 127 132 144 142 140 141 141 141 142 142 144 146 154 157 151 149 147 148 149 151 147 144 143 141 140 139 138 137 137 137 136 135 136 137 138 138 138 138 139 139 138 135 133 133 133 134 137 140 138 132 126 123 116 112 108 102 102 99 103 102 99 98 101
155 158 184 247 279 343 200 235 266 214 277 181 241 152 153 150 131 132 122 96 81 86 93 104 110 106 81 86 77 136 141 118 131 139 134 140 143 141 142 142 142 142 141 144 147 149 158 160 154 155 152 150 155 149 147 146 147 145 145 143 142 141 141 139 138 138 139 140 140 141 142 143 143 142 140 138 136 135 136 140 142 140 137 133 127 122 118 112 109 106 104 103 101 108 106 103 96
164 168 180 174 198 79 278 220 250 162 267 166 222 136 138 139 137 129 121 124 133 119 132 132 102 94 82 97 103 111 115 107 109 117 125 140 143 143 143 143 141 144 145 146 151 156 160 161 158 158 154 153 152 151 149 150 150 150 148 147 146 145 143 142 142 141 143 142 144 144 146 146 146 144 141 140 139 139 140 139 140 136 136 132 127 127 118 110 103 101 98 89 81 89 109 102 92
228 260 183 24 241 197 244 190 247 192 249 239 167 142 134 138 141 131 130 118 122 122 120 124 153 83 119 96 81 112 80 106 112 124 137 141 147 146 142 146 145 145 146 150 152 157 160 160 159 158 156 156 153 152 154 154 153 152 152 151 149 147 146 145 145 146 145 146 147 147 148 148 147 145 144 142 141 141 141 141 141 143 140 141 144 135 125 115 102 99 85 64 60 59 65 78 93
249 220 198 211 155 239 245 248 220 219 197 192 139 153 152 147 137 140 127 125 128 125 128 122 124 105 121 105 112 112 121 119 127 136 145 146 146 144 143 145 145 142 144 149 154 154 161 162 159 159 159 159 156 156 157 157 155 154 155 154 152 151 150 150 149 149 149 149 149 149 149 150 148 147 146 145 146 146 146 148 149 149 151 151 146 140 125 125 118 82 33 14 18 30 33 56 60
196 201 276 326 341 284 209 313 269 256 159 154 153 152 158 146 135 135 125 123 129 118 104 107 88 118 118 95 78 104 121 132 142 148 150 147 144 142 140 139 140 142 143 149 152 154 161 161 162 162 163 161 158 161 159 159 157 157 157 157 156 155 154 154 153 151 152 151 152 151 152 151 151 150 150 151 151 152 152 154 155 155 159 160 155 152 152 153 142 6 339 329 331 339 328 346 42
215 202 180 205 240 238 277 292 316 170 154 145 142 161 150 130 132 119 124 119 120 125 140 144 138 124 99 116 126 131 134 144 146 145 148 146 142 143 138 137 139 141 145 147 148 149 159 161 162 165 164 162 161 162 162 162 159 160 160 160 160 158 158 158 155 155 155 155 154 155 155 154 155 156 156 155 157 157 158 158 160 163 167 169 169 171 177 182 207 276 317 321 322 318 315 318 333
239 197 157 138 243 157 275 267 325 140 137 147 149 143 138 135 136 132 128 126 136 143 158 142 134 135 116 129 132 135 148 156 148 150 148 148 143 140 138 139 140 142 144 147 148 153 158 157 161 163 165 165 164 162 166 161 163 162 162 163 162 162 162 161 159 158 159 159 158 159 160 158 159 161 161 162 163 164 164 163 166 173 177 179 184 194 196 202 216 258 298 315 316 315 306 311 329
218 197 151 263 181 238 266 319 341 46 152 161 132 141 144 135 143 135 133 138 156 146 125 136 133 117 103 116 148 158 157 156 154 152 150 147 144 140 139 139 142 145 148 151 152 152 153 157 157 159 162 162 165 164 164 164 166 164 165 165 165 165 164 163 163 163 162 162 163 163 164 166 165 166 168 169 169 169 170 173 177 179 186 191 197 208 215 212 219 250 280 303 309 310 304 299 301
231 190 253 228 279 74 248 79 275 44 189 154 145 142 145 136 139 140 144 142 130 118 125 132 141 115 180 160 163 174 160 156 155 150 148 144 147 141 134 138 140 143 145 149 150 152 155 155 156 157 157 158 161 162 163 168 168 167 167 168 168 168 167 167 167 167 167 166 168 169 170 171 172 172 172 175 174 174 177 182 183 190 196 204 208 227 247 253 258 263 271 290 296 303 303 299 299
212 225 92 313 287 13 258 236 261 71 232 163 160 141 142 134 142 146 156 132 122 138 150 136 222 22 158 194 155 157 154 153 149 149 142 144 141 131 134 140 144 145 147 149 152 156 156 155 155 157 156 160 162 162 161 167 170 170 170 171 171 170 171 171 171 172 172 173 174 174 175 176 176 178 177 179 179 181 182 185 197 201 208 216 223 239 254 264 272 278 275 272 285 290 297 299 301
178 172 296 290 279 66 260 116 83 283 252 179 157 147 143 138 140 117 123 124 137 158 177 149 185 131 157 153 148 148 150 147 149 147 147 147 141 136 138 144 145 147 151 155 157 159 160 158 157 155 162 160 161 161 163 168 175 172 173 174 174 174 175 176 176 177 177 180 178 178 178 173 180 183 183 178 190 182 189 198 207 212 219 227 236 248 257 269 278 285 288 287 287 290 288 290 291
178 219 208 257 235 183 246 203 160 205 334 178 127 136 126 122 119 124 122 134 136 152 120 111 94 94 123 130 141 148 145 148 152 154 156 148 146 147 149 152 154 161 160 161 167 164 163 165 163 161 162 165 164 163 167 171 178 173 173 176 177 178 179 179 180 178 181 179 182 180 168 171 176 187 185 187 202 191 203 208 214 221 223 231 241 252 266 277 284 291 307 304 289 290 285 282 290
204 202 161 242 193 228 169 191 225 160 263 319 138 140 131 136 130 148 132 149 142 133 126 122 113 110 121 135 147 153 150 153 156 160 154 152 154 156 156 156 163 158 164 166 169 172 169 165 168 168 169 167 167 169 171 177 180 166 174 176 178 181 184 180 176 179 159 174 168 164 168 181 174 198 192 198 199 205 210 219 223 229 228 233 244 255 267 276 289 298 295 292 293 283 291 293 279
210 155 221 238 218 218 208 167 217 234 224 152 166 149 136 146 136 159 145 156 148 145 139 133 131 139 146 147 155 156 155 153 158 159 156 155 157 158 159 162 164 169 167 171 168 171 170 171 174 173 171 171 169 173 170 177 179 167 175 177 181 177 187 173 171 165 163 171 170 168 182 190 187 194 215 209 210 213 221 222 225 226 232 237 245 251 261 271 273 278 261 273 292 296 278 276 269
196 185 222 235 228 182 243 189 221 225 209 173 162 161 141 160 148 156 151 149 164 158 159 150 152 149 152 154 158 159 155 157 159 162 159 156 157 162 164 167 167 167 168 163 167 171 174 174 172 175 174 172 172 172 173 179 175 169 177 178 179 177 176 168 173 163 174 178 174 185 193 195 194 201 219 229 217 206 216 229 237 230 228 255 261 247 245 271 281 315 298 300 300 273 264 253 233
216 218 232 242 256 216 203 197 198 219 212 147 153 151 162 156 158 151 160 162 170 174 166 152 149 152 153 158 161 161 160 162 161 165 166 162 162 163 162 162 161 162 164 169 174 170 175 177 176 173 174 176 175 176 177 177 171 178 180 181 176 181 175 177 172 177 181 185 185 193 194 197 207 213 213 221 234 219 210 219 218 212 210 231 240 215 253 264 266 245 225 261 279 264 253 249 224
243 245 238 237 237 237 155 200 204 208 189 174 160 167 148 159 175 162 167 172 168 160 153 151 152 156 155 154 156 157 161 164 165 166 165 166 164 165 166 165 165 169 173 175 170 172 174 177 177 173 176 175 179 177 172 177 181 182 181 181 179 188 183 178 185 187 190 185 192 193 194 201 209 211 214 219 228 210 205 199 201 197 209 220 220 205 254 265 243 254 282 279 278 291 260 247 239
220 238 228 233 236 228 200 194 208 205 187 163 166 142 167 168 163 174 164 126 138 144 149 151 150 149 150 155 162 158 163 166 167 168 168 169 168 168 168 167 168 164 170 170 172 172 176 179 179 175 177 177 179 177 174 181 182 183 186 187 190 191 188 192 188 192 189 193 196 198 201 199 204 209 216 217 223 202 206 192 193 192 201 221 222 198 235 261 243 220 224 247 282 285 280 283 280
232 247 241 241 231 240 232 194 200 201 189 164 149 161 174 175 155 151 125 130 133 140 143 144 147 152 158 158 161 159 164 167 167 167 169 169 169 166 166 164 165 166 171 172 173 174 181 179 177 180 180 180 178 176 179 184 183 185 187 193 192 193 194 197 192 188 195 199 200 202 203 203 207 207 213 213 192 204 194 178 178 186 194 216 219 247 223 236 188 182 214 253 253 262 269 274 254
227 244 255 245 234 238 234 193 205 192 182 153 159 165 173 152 125 140 143 137 139 140 144 146 149 155 163 165 164 161 166 170 168 169 173 169 171 168 171 171 169 173 176 171 172 179 179 179 180 183 182 181 180 179 184 182 185 188 191 196 192 193 197 194 190 193 199 196 205 205 207 200 203 201 207 203 180 194 187 178 176 188 194 219 216 236 235 192 158 175 241 248 260 291 305 307 335
281 272 260 267 253 233 235 205 198 195 185 168 164 182 133 136 112 68 143 139 139 143 147 150 153 160 165 167 167 164 166 171 173 170 169 172 175 175 175 174 176 178 171 175 177 177 179 178 183 184 183 182 181 186 182 186 186 193 194 193 193 197 195 190 193 195 196 201 206 204 205 200 200 200 189 186 183 177 178 179 188 182 193 222 203 222 222 186 175 184 215 233 260 290 279 292 305
276 274 286 285 275 252 218 215 187 180 194 187 149 160 141 134 119 151 160 146 146 146 150 154 157 160 166 167 167 167 171 170 169 171 176 177 180 178 178 179 179 175 177 179 179 177 179 183 182 183 183 183 184 189 185 186 189 195 193 190 197 198 190 195 195 195 197 203 206 203 202 202 192 190 176 175 170 172 177 182 185 174 199 202 185 178 200 197 196 210 224 225 218 232 278 294 317
276 259 278 278 290 296 210 202 197 167 190 183 129 107 143 139 144 155 156 153 151 149 154 157 159 162 165 169 165 170 176 175 174 176 180 181 180 180 180 181 176 178 183 179 176 177 183 183 181 183 183 184 186 190 188 186 188 192 192 193 195 193 194 195 197 197 198 201 204 200 194 194 192 176 179 171 169 175 175 178 182 190 194 187 187 191 185 205 211 226 245 235 271 270 317 307 315
307 287 237 290 305 284 246 186 202 169 182 165 138 140 208 151 148 152 151 150 147 146 154 159 160 163 165 169 169 172 176 179 189 184 177 180 181 183 179 178 179 180 176 179 176 183 182 183 182 181 184 186 189 191 188 184 188 190 194 196 195 191 195 196 202 198 197 198 202 201 185 189 188 181 169 175 168 170 175 180 182 185 188 184 188 187 195 210 222 225 244 303 323 343 334 308 308
286 297 317 238 298 267 257 184 190 178 175 170 158 150 223 154 154 153 157 153 155 155 160 162 161 165 167 168 172 176 182 187 191 186 183 179 181 183 180 176 179 180 174 176 181 183 180 181 180 181 184 187 188 192 191 188 186 189 191 196 197 196 196 199 202 198 196 198 197 204 182 187 185 177 174 168 171 171 175 184 186 183 180 180 179 199 195 220 222 236 244 253 335 335 312 314 305
302 344 292 314 227 280 288 234 186 164 170 169 108 115 184 163 159 161 159 159 157 156 162 163 165 167 170 167 174 180 184 187 194 192 187 181 180 182 182 180 179 179 178 178 180 178 182 181 180 182 181 186 190 193 194 190 186 190 192 193 197 198 196 201 205 199 195 192 194 198 183 182 183 179 174 171 169 177 176 182 187 175 176 166 182 196 198 216 229 262 288 196 23 329 347 293 17
312 188 280 277 285 273 325 274 181 157 160 175 171 178 134 160 159 160 163 161 162 158 163 165 168 170 170 168 176 180 181 190 195 194 190 186 182 180 182 181 181 179 178 179 179 179 183 181 182 183 182 186 189 193 194 191 189 192 193 194 194 197 199 201 198 194 189 187 190 193 185 179 178 177 179 178 168 172 178 181 183 178 170 172 179 193 209 225 222 288 285 242 160 200 186 31 357
284 50 225 241 243 269 264 286 269 148 149 180 151 134 189 159 165 164 166 164 164 162 166 167 170 172 172 171 175 180 185 186 195 195 192 187 183 178 180 181 180 179 180 179 179 181 183 182 184 185 183 185 187 191 190 188 192 192 195 196 190 194 200 199 181 182 187 186 182 188 185 178 173 179 181 176 170 167 170 171 172 172 172 174 177 171 214 263 256 203 277 293 138 180 93 67 339
228 237 261 278 264 225 245 254 276 159 163 160 163 159 183 156 164 167 169 170 167 167 168 170 172 172 172 173 177 182 187 190 196 195 190 187 183 178 178 178 179 179 181 179 178 181 182 183 183 185 181 184 187 188 189 188 185 187 192 192 189 191 197 196 175 178 184 179 183 184 182 181 179 178 176 171 173 164 164 169 170 178 174 170 167 176 209 244 248 229 219 272 269 160 150 135 217
225 226 223 252 265 269 214 250 251 175 155 160 167 172 159 160 163 170 170 172 170 170 169 169 172 174 173 175 180 183 189 197 195 192 191 188 186 180 179 178 178 178 178 178 177 179 182 183 184 183 182 183 183 185 184 190 185 180 184 192 193 195 195 194 198 179 180 182 187 180 184 184 184 177 174 175 176 165 162 170 173 173 177 162 166 178 222 212 217 196 187 202 138 344 28 73 96
256 257 244 254 255 270 264 256 233 197 154 169 174 165 156 167 166 171 173 173 171 168 171 171 174 174 176 179 182 186 190 197 191 189 189 189 188 182 179 177 178 175 176 178 178 182 182 182 181 185 182 181 181 182 185 186 187 186 188 191 195 193 191 192 197 201 173 186 185 187 186 186 185 178 173 169 177 169 167 165 165 179 175 162 176 206 200 208 189 174 181 171 139 63 348 23 310
240 251 254 260 251 257 256 277 245 196 176 207 176 165 165 173 171 170 170 168 175 175 174 176 176 177 178 180 184 187 194 192 180 186 191 187 190 183 179 179 176 177 182 179 182 183 182 180 183 181 181 183 185 185 185 188 190 190 185 188 184 186 187 190 198 208 183 180 186 190 186 186 183 179 173 175 177 168 163 167 173 180 174 175 192 211 206 191 176 156 143 85 18 137 230 232 231
241 245 247 261 258 254 286 266 272 239 215 186 187 168 179 176 179 167 169 176 179 178 175 178 176 180 181 183 184 188 185 185 185 188 188 188 188 184 181 181 183 184 182 183 183 178 182 183 184 181 183 184 187 185 184 189 190 187 183 176 177 180 199 194 192 195 177 175 192 189 182 182 179 180 176 175 172 174 173 170 180 176 181 175 181 214 191 189 168 167 163 146 89 17 270 215 193
231 240 247 242 247 229 271 249 249 218 209 181 190 177 188 175 177 179 173 176 178 182 180 178 178 179 183 186 185 183 185 185 188 188 189 187 187 185 182 185 186 184 183 183 182 184 184 186 184 184 184 184 185 187 185 185 184 181 182 168 174 174 181 188 193 194 177 173 187 184 184 179 178 181 179 173 175 174 173 176 177 178 185 172 174 178 196 181 141 153 165 154 126 155 356 281 189
231 230 238 246 250 230 222 270 274 282 262 177 152 131 68 181 168 189 188 179 177 182 182 180 184 183 184 185 186 183 184 185 189 189 189 186 186 188 187 187 183 183 186 186 187 187 187 188 184 183 182 183 183 184 184 175 169 159 154 146 152 166 135 177 185 210 193 187 178 181 190 182 180 181 177 177 176 175 175 173 176 186 178 175 166 179 182 180 181 171 165 144 151 163 209 246 344
238 237 230 241 249 249 253 258 284 274 253 164 155 161 224 228 186 183 185 175 184 183 180 183 186 189 185 184 189 190 188 185 185 188 189 188 188 189 187 182 183 187 188 190 189 190 188 186 181 181 180 181 183 182 180 176 176 171 167 171 183 192 197 194 201 200 196 191 190 182 183 185 181 179 178 178 178 170 176 178 179 179 177 179 173 190 177 165 183 160 178 162 173 187 162 131 100
217 233 227 240 251 251 257 259 306 212 218 224 187 175 241 255 206 190 183 185 185 184 186 186 184 187 187 188 188 189 190 191 192 190 190 188 188 187 187 187 186 188 192 189 188 189 188 184 182 180 181 182 180 180 178 177 177 182 184 187 190 194 198 211 205 202 200 193 170 177 183 184 181 177 181 180 174 178 179 178 178 180 177 180 182 175 170 183 187 186 165 155 175 162 122 155 168
233 207 205 235 248 250 251 254 242 225 262 310 212 187 169 193 227 202 184 184 182 185 193 189 187 188 190 190 188 188 190 189 189 193 192 191 188 187 189 192 189 191 188 184 186 186 185 185 182 182 181 179 180 178 179 180 180 182 186 190 193 196 200 203 198 202 194 167 174 178 176 183 183 181 177 182 180 178 179 179 175 174 175 180 177 181 182 191 185 180 175 176 167 163 156 153 185
235 202 204 226 237 247 251 249 245 219 206 265 235 214 180 208 203 198 182 181 191 191 193 194 189 191 192 192 189 189 190 190 188 190 193 193 191 191 191 191 194 190 180 184 187 186 187 184 181 179 178 177 179 179 181 184 183 182 185 187 192 202 201 202 198 194 184 175 174 176 179 180 183 183 180 180 183 182 183 179 172 175 177 179 183 180 188 170 178 166 155 149 170 177 162 163 138
237 208 212 233 240 249 248 244 236 238 189 232 211 195 236 279 239 181 203 191 191 199 201 196 190 190 192 194 193 190 190 191 191 191 192 193 193 192 192 192 191 189 185 185 186 184 183 180 180 179 179 179 178 181 183 184 185 182 184 189 193 197 196 192 186 189 188 176 178 179 180 178 183 183 186 186 182 184 182 176 176 181 183 183 182 183 182 171 175 171 171 171 174 165 176 153 167
213 186 223 242 244 243 262 243 223 253 230 227 212 195 199 258 225 181 180 203 195 200 205 205 195 191 192 194 193 191 189 189 191 194 194 194 194 193 191 190 192 190 187 184 183 183 181 181 182 183 183 179 179 182 183 186 186 186 188 189 193 195 194 185 183 191 183 176 179 181 181 185 183 184 180 188 186 183 182 179 181 183 186 185 183 178 187 179 183 177 174 170 171 163 169 177 178
212 197 206 232 274 285 296 292 130 205 246 243 211 210 189 232 257 227 203 195 196 191 197 202 202 195 193 194 194 192 190 188 190 192 195 196 196 196 189 192 191 190 184 184 185 183 182 183 182 185 185 181 179 182 184 186 187 190 191 190 194 196 191 189 188 188 185 182 182 182 184 179 185 182 182 181 187 186 183 181 182 181 188 189 188 180 186 181 183 179 170 174 177 175 169 166 171
207 200 169 190 230 208 254 240 239 213 216 246 207 199 214 218 206 192 210 213 204 199 197 198 201 201 192 192 194 193 190 188 188 191 192 192 194 194 193 195 191 188 187 186 185 183 184 184 183 184 188 185 181 181 185 187 188 191 191 193 196 196 195 194 192 190 184 182 182 180 178 185 181 179 187 184 188 188 185 180 179 184 191 192 186 175 187 181 177 177 177 178 172 174 184 172 169
198 198 178 178 197 205 231 240 259 279 273 242 196 197 217 212 234 203 195 205 204 201 204 203 201 198 194 193 192 191 190 188 189 190 191 190 193 194 195 192 190 191 190 186 184 184 184 186 186 186 188 186 184 183 185 187 191 191 192 193 195 195 198 197 197 193 188 184 181 184 183 185 183 186 184 188 186 186 188 188 184 185 190 188 185 183 184 185 178 178 179 176 181 187 178 177 179
208 175 178 198 192 189 211 205 217 219 213 252 199 146 232 160 245 195 202 202 203 203 204 206 204 197 195 194 189 188 189 191 190 191 191 192 193 194 195 193 191 191 190 186 185 186 184 186 187 189 187 187 186 187 186 188 190 192 193 194 195 196 199 199 199 195 189 187 184 184 188 185 183 186 187 188 183 185 187 187 189 184 188 187 185 187 188 184 182 177 179 186 182 179 183 179 189
199 189 121 163 217 122 191 202 154 220 275 272 238 203 182 189 225 195 199 196 200 203 209 207 201 198 192 187 189 190 191 192 192 191 193 194 194 195 195 194 193 191 189 187 187 186 186 188 188 188 187 185 187 188 190 189 189 191 193 194 196 196 199 200 201 197 195 193 187 185 188 188 186 183 187 182 186 184 187 188 191 192 190 187 187 189 187 182 182 179 184 185 187 177 181 186 197
215 172 209 203 120 189 223 294 266 137 157 247 202 301 306 297 333 242 201 198 203 200 199 194 196 196 188 188 192 195 192 192 191 192 193 195 196 196 195 194 191 190 188 190 190 188 188 185 186 188 188 186 187 189 189 190 190 190 194 195 195 196 197 198 199 197 195 196 191 190 188 189 185 182 183 185 183 188 189 189 190 193 192 192 187 191 188 183 181 184 184 187 190 183 179 193 195
154 204 209 162 144 134 174 210 267 229 218 259 233 229 273 207 249 271 188 194 212 209 199 192 192 190 191 194 196 198 195 193 192 192 192 194 195 195 196 194 191 189 191 192 191 189 186 184 184 184 186 187 190 188 189 190 190 192 193 196 198 197 198 199 198 195 194 193 193 190 186 186 189 184 182 184 183 187 191 190 191 194 195 192 193 190 188 184 180 188 189 190 191 179 186 196 201
190 195 184 180 202 200 242 125 219 211 228 254 271 225 225 198 237 233 213 203 209 202 194 189 188 188 194 199 204 202 196 191 192 194 195 198 196 196 194 194 194 193 192 190 188 183 184 186 186 185 186 187 186 188 190 191 190 191 193 195 197 198 199 199 198 195 192 195 194 190 189 188 184 185 184 183 184 188 190 193 192 194 194 195 195 192 188 183 183 186 191 193 190 183 188 199 207
209 136 204 182 130 200 164 207 143 143 232 198 268 209 239 207 207 199 217 217 196 199 193 194 188 190 196 201 202 199 193 190 192 194 198 197 198 197 195 194 192 191 191 190 184 184 186 186 184 188 189 187 186 187 187 191 191 190 191 193 198 198 198 198 196 193 196 199 197 191 188 186 189 185 188 186 186 189 191 192 194 194 194 195 195 195 188 186 184 189 188 191 193 186 191 199 204
210 212 195 217 213 221 173 205 182 181 178 185 180 235 258 250 204 187 223 234 201 193 194 196 196 197 198 199 199 197 194 190 191 194 196 199 199 197 196 194 192 189 186 183 183 187 188 183 186 185 185 186 188 188 188 190 188 191 189 192 195 196 198 197 198 198 199 200 197 194 192 190 183 192 188 190 190 192 192 193 192 195 195 194 194 194 191 186 188 190 191 193 188 190 195 201 199
206 200 211 196 146 154 180 249 348 154 168 209 182 249 271 262 181 190 209 235 203 205 195 197 198 197 198 200 200 196 195 195 192 193 196 199 196 195 195 193 188 180 180 185 187 186 184 186 188 186 185 188 187 188 189 187 187 189 191 192 193 194 195 196 199 200 203 201 198 196 192 186 193 194 190 192 192 192 193 193 194 196 196 196 194 194 190 188 190 191 193 191 191 193 200 201 197